| time (UTC) | temp C | wind direction | speed KPH | gust KPH | rain 1hr cm | rain 24hr cm | rain mn cm | humidity % | barometer mb |
| 20260505041513 | 8 | 314 | 9.7 | 20.9 | 0.00 | 0.00 | 0.00 | 82 | 1011.2 |
| 20260505040011 | 8 | 307 | 11.3 | 17.7 | 0.00 | 0.00 | 0.00 | 81 | 1011.2 |
| 20260505034507 | 8 | 344 | 19.3 | 27.4 | 0.00 | 0.00 | 0.00 | 80 | 1011.1 |
| 20260505033005 | 8 | 3 | 19.3 | 27.4 | 0.00 | 0.00 | 0.00 | 80 | 1011.1 |
| 20260505031502 | 8 | 340 | 19.3 | 25.7 | 0.00 | 0.00 | 0.00 | 81 | 1011.1 |
| 20260505030002 | 8 | 350 | 17.7 | 24.1 | 0.00 | 0.03 | 0.00 | 80 | 1011.1 |
| 20260505024601 | 8 | 333 | 16.1 | 22.5 | 0.00 | 0.03 | 0.00 | 81 | 1011.1 |
| 20260505023103 | 8 | 353 | 16.1 | 25.7 | 0.00 | 0.03 | 0.00 | 81 | 1011.2 |
| 20260505021556 | 8 | 349 | 14.5 | 19.3 | 0.00 | 0.03 | 0.00 | 81 | 1011.4 |
| 20260505020053 | 8 | 308 | 12.9 | 20.9 | 0.00 | 0.03 | 0.00 | 80 | 1011.4 |
| 20260505014552 | 8 | 356 | 19.3 | 27.4 | 0.00 | 0.08 | 0.00 | 80 | 1011.6 |
| 20260505013052 | 8 | 329 | 19.3 | 25.7 | 0.00 | 0.08 | 0.00 | 80 | 1011.5 |
| 20260505011549 | 9 | 338 | 17.7 | 29.0 | 0.00 | 0.08 | 0.00 | 80 | 1011.7 |
| 20260505010048 | 9 | 329 | 22.5 | 29.0 | 0.00 | 0.08 | 0.00 | 79 | 1011.6 |
| 20260505004546 | 9 | 357 | 19.3 | 29.0 | 0.00 | 0.10 | 0.00 | 80 | 1011.7 |
| 20260505003044 | 9 | 342 | 22.5 | 27.4 | 0.00 | 0.10 | 0.00 | 79 | 1011.7 |
| 20260505001550 | 9 | 357 | 22.5 | 29.0 | 0.00 | 0.10 | 0.00 | 79 | 1011.7 |
| 20260505000047 | 9 | 357 | 20.9 | 27.4 | 0.00 | 0.10 | 0.00 | 79 | 1011.8 |
| 20260504234543 | 9 | 348 | 20.9 | 30.6 | 0.00 | 0.20 | 0.00 | 80 | 1011.7 |
| 20260504233038 | 10 | 341 | 20.9 | 27.4 | 0.00 | 0.20 | 0.00 | 79 | 1011.9 |
| 20260504231553 | 10 | 356 | 20.9 | 27.4 | 0.00 | 0.20 | 0.00 | 80 | 1011.7 |
| 20260504230033 | 10 | 350 | 20.9 | 25.7 | 0.00 | 0.20 | 0.00 | 80 | 1011.8 |
| 20260504224537 | 10 | 1 | 20.9 | 29.0 | 0.00 | 0.43 | 0.00 | 80 | 1012.0 |
| 20260504223030 | 10 | 344 | 20.9 | 25.7 | 0.00 | 0.43 | 0.00 | 79 | 1011.8 |
| 20260504221530 | 10 | 357 | 20.9 | 25.7 | 0.00 | 0.43 | 0.00 | 80 | 1011.9 |
| 20260504220030 | 10 | 37 | 22.5 | 29.0 | 0.00 | 0.43 | 0.00 | 80 | 1011.9 |
| 20260504214524 | 10 | 350 | 22.5 | 27.4 | 0.00 | 0.61 | 0.43 | 80 | 1012.0 |
| 20260504213023 | 10 | 348 | 19.3 | 22.5 | 0.00 | 0.61 | 0.43 | 80 | 1012.1 |
| 20260504211522 | 10 | 354 | 19.3 | 24.1 | 0.00 | 0.61 | 0.43 | 80 | 1012.2 |
| 20260504210020 | 10 | 332 | 9.7 | 20.9 | 0.00 | 0.61 | 0.43 | 81 | 1012.1 |
| 20260504204520 | 10 | 316 | 8.0 | 14.5 | 0.00 | 0.84 | 0.43 | 80 | 1012.1 |
| 20260504203023 | 10 | 343 | 8.0 | 12.9 | 0.00 | 0.84 | 0.43 | 80 | 1012.1 |
| 20260504201517 | 11 | 339 | 8.0 | 12.9 | 0.00 | 0.84 | 0.43 | 80 | 1012.1 |
| 20260504200014 | 11 | 30 | 9.7 | 16.1 | 0.00 | 0.84 | 0.43 | 79 | 1012.0 |
| 20260504194525 | 11 | 352 | 12.9 | 17.7 | 0.00 | 0.84 | 0.43 | 78 | 1011.8 |
| 20260504193015 | 11 | 342 | 14.5 | 19.3 | 0.00 | 0.84 | 0.43 | 77 | 1011.7 |
| 20260504191509 | 11 | 12 | 14.5 | 17.7 | 0.00 | 0.84 | 0.43 | 76 | 1011.6 |
| 20260504190009 | 11 | 7 | 14.5 | 19.3 | 0.00 | 0.84 | 0.43 | 75 | 1011.5 |
| 20260504184511 | 11 | 341 | 14.5 | 20.9 | 0.00 | 0.84 | 0.43 | 75 | 1011.3 |
| 20260504183007 | 12 | 315 | 17.7 | 20.9 | 0.00 | 0.84 | 0.43 | 73 | 1011.3 |
| 20260504181506 | 12 | 9 | 16.1 | 22.5 | 0.00 | 0.84 | 0.43 | 72 | 1011.4 |
| 20260504180012 | 12 | 309 | 16.1 | 22.5 | 0.00 | 0.84 | 0.43 | 70 | 1011.3 |
| 20260504174505 | 12 | 318 | 16.1 | 30.6 | 0.00 | 0.84 | 0.43 | 63 | 1011.1 |
| 20260504173012 | 13 | 310 | 19.3 | 27.4 | 0.00 | 0.84 | 0.43 | 57 | 1011.1 |
| 20260504171503 | 13 | 308 | 14.5 | 24.1 | 0.00 | 0.84 | 0.43 | 57 | 1011.1 |
| 20260504081508 | 10 | 327 | 22.5 | 30.6 | 0.00 | 0.84 | 0.43 | 91 | 1009.1 |